When you browse on this site, cookies collect data to enhance your experience and personalize the content and advertising you see.
Visit our Privacy Policy to learn more. By continuing to use the site, you agree to this use of cookies and data.
  • în România
  • Lista ţărilor
  • Pe 7 zile
  • Temperatura apei
  • Hartă satelitară
  • Meteo pe hartă
  • Widget-uri
  • user-avatar
    Intrare

    Meteo pe oră la Talsa

    Astăzi, 10 Decembrie, Luni

    Timp Temperatura Precipitaţii Vânt Presiune Umiditate
    00:00 0°C° 0 mm 0 m/s 751 mmHg 55%
    01:00 0°C° 0 mm 0 m/s 751 mmHg 56%
    02:00 0°C° 0 mm 0 m/s 751 mmHg 58%
    03:00 +1°C° 0 mm 1 m/s 750 mmHg 59%
    04:00 +1°C° 0 mm 1 m/s 751 mmHg 60%
    05:00 +1°C° 0 mm 1 m/s 751 mmHg 62%
    06:00 0°C° 0 mm 1 m/s 751 mmHg 64%
    07:00 +1°C° 0 mm 1 m/s 751 mmHg 61%
    08:00 +2°C° 0 mm 1 m/s 752 mmHg 59%
    09:00 +3°C° 0 mm 1 m/s 752 mmHg 57%
    10:00 +4°C° 0 mm 1 m/s 752 mmHg 54%
    11:00 +6°C° 0 mm 1 m/s 752 mmHg 50%
    12:00 +6°C° 0 mm 2 m/s 752 mmHg 47%
    13:00 +7°C° 0 mm 2 m/s 751 mmHg 45%
    14:00 +8°C° 0 mm 2 m/s 751 mmHg 42%
    15:00 +8°C° 0 mm 2 m/s 751 mmHg 40%
    16:00 +8°C° 0 mm 1 m/s 750 mmHg 45%
    17:00 +6°C° 0 mm 1 m/s 750 mmHg 49%
    18:00 +5°C° 0 mm 1 m/s 750 mmHg 54%
    19:00 +4°C° 0 mm 1 m/s 750 mmHg 55%
    20:00 +4°C° 0 mm 1 m/s 751 mmHg 56%
    21:00 +4°C° 0 mm 1 m/s 751 mmHg 57%
    22:00 +2°C° 0 mm 2 m/s 751 mmHg 59%
    23:00 +2°C° 0 mm 2 m/s 751 mmHg 61%

    Mâine, 11 Decembrie, Marţi

    Timp Temperatura Precipitaţii Vânt Presiune Umiditate
    00:00 +2°C° 0 mm 2 m/s 751 mmHg 63%
    01:00 +2°C° 0 mm 2 m/s 750 mmHg 66%
    02:00 0°C° 0 mm 3 m/s 750 mmHg 70%
    03:00 0°C° 0 mm 3 m/s 750 mmHg 74%
    04:00 0°C° 0 mm 3 m/s 750 mmHg 77%
    05:00 0°C° 0 mm 3 m/s 749 mmHg 81%
    06:00 0°C° 0 mm 3 m/s 749 mmHg 84%
    07:00 0°C° 0 mm 4 m/s 749 mmHg 80%
    08:00 +1°C° 0 mm 5 m/s 749 mmHg 76%
    09:00 +2°C° 0 mm 5 m/s 749 mmHg 72%
    10:00 +4°C° 0 mm 6 m/s 748 mmHg 65%
    11:00 +8°C° 0 mm 7 m/s 748 mmHg 58%
    12:00 +10°C° 0 mm 7 m/s 747 mmHg 51%
    13:00 +10°C° 0 mm 7 m/s 746 mmHg 50%
    14:00 +11°C° 0 mm 8 m/s 745 mmHg 49%
    15:00 +12°C° 0 mm 8 m/s 744 mmHg 47%
    16:00 +11°C° 0 mm 7 m/s 744 mmHg 51%
    17:00 +10°C° 0 mm 7 m/s 744 mmHg 55%
    18:00 +9°C° 0 mm 6 m/s 744 mmHg 59%
    19:00 +8°C° 0 mm 6 m/s 744 mmHg 61%
    20:00 +8°C° 0 mm 6 m/s 744 mmHg 62%
    21:00 +8°C° 0 mm 6 m/s 744 mmHg 64%
    22:00 +8°C° 0 mm 6 m/s 743 mmHg 65%
    23:00 +8°C° 0 mm 6 m/s 743 mmHg 66%

    Poimâine, 12 Decembrie, Miercuri

    Timp Temperatura Precipitaţii Vânt Presiune Umiditate
    00:00 +8°C° 0 mm 6 m/s 743 mmHg 68%
    01:00 +8°C° 0 mm 5 m/s 743 mmHg 71%
    02:00 +8°C° 0 mm 5 m/s 743 mmHg 74%
    03:00 +7°C° 0 mm 4 m/s 743 mmHg 77%
    04:00 +7°C° 0 mm 4 m/s 743 mmHg 81%
    05:00 +7°C° 0 mm 3 m/s 743 mmHg 84%
    06:00 +6°C° 0 mm 2 m/s 742 mmHg 88%
    07:00 +7°C° 0 mm 2 m/s 743 mmHg 86%
    08:00 +7°C° 0 mm 2 m/s 743 mmHg 84%
    09:00 +8°C° 0 mm 2 m/s 743 mmHg 82%
    10:00 +9°C° 0 mm 3 m/s 742 mmHg 78%
    11:00 +11°C° 0 mm 4 m/s 742 mmHg 74%
    12:00 +13°C° 0 mm 4 m/s 741 mmHg 70%
    13:00 +13°C° 0 mm 5 m/s 741 mmHg 72%
    14:00 +13°C° 0 mm 5 m/s 740 mmHg 73%
    15:00 +13°C° 0 mm 6 m/s 739 mmHg 75%
    16:00 +11°C° 0 mm 6 m/s 739 mmHg 79%
    17:00 +11°C° 0 mm 6 m/s 738 mmHg 83%
    18:00 +10°C° 0 mm 6 m/s 738 mmHg 86%
    19:00 +11°C° 0.1 mm 6 m/s 738 mmHg 88%
    20:00 +11°C° 0.1 mm 6 m/s 737 mmHg 89%
    21:00 +11°C° 0.1 mm 6 m/s 737 mmHg 90%
    22:00 +13°C° 0.1 mm 6 m/s 736 mmHg 90%
    23:00 +13°C° 0.1 mm 6 m/s 736 mmHg 90%

    13 Decembrie, Joi

    Timp Temperatura Precipitaţii Vânt Presiune Umiditate
    00:00 +13°C° 0.1 mm 6 m/s 735 mmHg 90%
    01:00 +14°C° 0 mm 6 m/s 734 mmHg 89%
    02:00 +14°C° 0 mm 7 m/s 734 mmHg 89%
    03:00 +14°C° 0 mm 7 m/s 733 mmHg 88%
    04:00 +14°C° 0.1 mm 6 m/s 733 mmHg 88%
    05:00 +14°C° 0.1 mm 5 m/s 732 mmHg 89%
    06:00 +14°C° 0.1 mm 5 m/s 732 mmHg 89%
    07:00 +14°C° 0.3 mm 4 m/s 732 mmHg 89%
    08:00 +14°C° 0.3 mm 3 m/s 732 mmHg 89%
    09:00 +15°C° 0.3 mm 2 m/s 732 mmHg 89%
    10:00 +13°C° 1.9 mm 4 m/s 732 mmHg 85%
    11:00 +11°C° 1.9 mm 6 m/s 732 mmHg 81%
    12:00 +10°C° 1.9 mm 9 m/s 732 mmHg 77%
    13:00 +8°C° 1.4 mm 11 m/s 732 mmHg 77%
    14:00 +5°C° 1.4 mm 13 m/s 732 mmHg 78%
    15:00 +2°C° 1.4 mm 15 m/s 731 mmHg 78%
    16:00 +2°C° 0.9 mm 15 m/s 732 mmHg 78%
    17:00 +3°C° 0.9 mm 14 m/s 733 mmHg 77%
    18:00 +1°C° 0.9 mm 14 m/s 733 mmHg 77%
    19:00 +1°C° 2.7 mm 13 m/s 734 mmHg 78%
    20:00 0°C° 2.7 mm 13 m/s 734 mmHg 79%
    21:00 0°C° 2.7 mm 12 m/s 734 mmHg 79%
    22:00 0°C° 2.9 mm 12 m/s 735 mmHg 80%
    23:00 -1°C° 2.9 mm 12 m/s 735 mmHg 81%

    14 Decembrie, Vineri

    Timp Temperatura Precipitaţii Vânt Presiune Umiditate
    00:00 -1°C° 2.9 mm 11 m/s 736 mmHg 82%
    01:00 -2°C° 2 mm 11 m/s 736 mmHg 82%
    02:00 -2°C° 2 mm 12 m/s 736 mmHg 81%
    03:00 -2°C° 2 mm 12 m/s 737 mmHg 81%
    04:00 -3°C° 1.1 mm 11 m/s 738 mmHg 80%
    05:00 -3°C° 1.1 mm 11 m/s 738 mmHg 79%
    06:00 -3°C° 1.1 mm 11 m/s 739 mmHg 79%
    07:00 -3°C° 0.2 mm 10 m/s 740 mmHg 77%
    08:00 -3°C° 0.2 mm 10 m/s 741 mmHg 75%
    09:00 -3°C° 0.2 mm 10 m/s 741 mmHg 74%
    10:00 -3°C° 0 mm 10 m/s 742 mmHg 77%
    11:00 -1°C° 0 mm 9 m/s 742 mmHg 80%
    12:00 -1°C° 0 mm 8 m/s 742 mmHg 84%
    13:00 0°C° 0 mm 7 m/s 742 mmHg 82%
    14:00 +2°C° 0 mm 7 m/s 742 mmHg 81%
    15:00 +2°C° 0 mm 6 m/s 742 mmHg 79%
    16:00 +2°C° 0 mm 6 m/s 743 mmHg 77%
    17:00 +2°C° 0 mm 6 m/s 743 mmHg 74%
    18:00 +1°C° 0 mm 5 m/s 743 mmHg 71%
    19:00 +1°C° 0 mm 5 m/s 744 mmHg 73%
    20:00 0°C° 0 mm 4 m/s 744 mmHg 75%
    21:00 0°C° 0 mm 4 m/s 745 mmHg 77%
    22:00 0°C° 0 mm 4 m/s 745 mmHg 79%
    23:00 0°C° 0 mm 3 m/s 745 mmHg 81%

    15 Decembrie, Sâmbătă

    Timp Temperatura Precipitaţii Vânt Presiune Umiditate
    00:00 0°C° 0 mm 3 m/s 745 mmHg 82%
    01:00 -1°C° 0 mm 3 m/s 745 mmHg 83%
    02:00 -1°C° 0 mm 3 m/s 746 mmHg 83%
    03:00 -1°C° 0 mm 3 m/s 746 mmHg 84%
    04:00 -2°C° 0 mm 2 m/s 746 mmHg 84%
    05:00 -2°C° 0 mm 2 m/s 746 mmHg 84%
    06:00 -2°C° 0 mm 2 m/s 746 mmHg 84%
    07:00 0°C° 0 mm 1 m/s 747 mmHg 83%
    08:00 +1°C° 0 mm 1 m/s 747 mmHg 82%
    09:00 +2°C° 0 mm 1 m/s 747 mmHg 81%
    10:00 +3°C° 0 mm 1 m/s 747 mmHg 80%
    11:00 +4°C° 0 mm 1 m/s 746 mmHg 78%
    12:00 +5°C° 0 mm 1 m/s 746 mmHg 77%
    13:00 +6°C° 0 mm 1 m/s 746 mmHg 77%
    14:00 +6°C° 0 mm 1 m/s 746 mmHg 78%
    15:00 +6°C° 0 mm 2 m/s 745 mmHg 78%
    16:00 +5°C° 0 mm 2 m/s 745 mmHg 79%
    17:00 +4°C° 0 mm 2 m/s 745 mmHg 80%
    18:00 +3°C° 0 mm 2 m/s 746 mmHg 80%
    19:00 +3°C° 0 mm 2 m/s 746 mmHg 80%
    20:00 +3°C° 0 mm 2 m/s 746 mmHg 79%
    21:00 +4°C° 0 mm 2 m/s 746 mmHg 78%
    22:00 +4°C° 0 mm 2 m/s 746 mmHg 78%
    23:00 +4°C° 0 mm 2 m/s 746 mmHg 78%
    Arată mai mult